Location: Unspecified
(0.0000°N, 0.0000°E)
Time: 17:12:09
(UTC+00:00)

Transit 2A Rocket - All Passes

Search period start: 20 December 2014 00:00
Search period end: 30 December 2014 00:00
Orbit: 587 x 920 km, 66.7° (Epoch: 19 December)

Date Brightness Start Highest point End Pass type
(mag) Time Alt. Az. Time Alt. Az. Time Alt. Az.
20 Dec - 02:21:38 10° SW 02:25:36 36° WNW 02:29:46 10° N night (unlit)
20 Dec - 13:08:38 10° N 13:14:12 37° ENE 13:19:33 10° SE daylight
20 Dec - 14:52:35 10° WNW 14:56:35 18° WSW 15:00:28 10° SSW daylight
21 Dec - 01:39:30 10° SSW 01:43:47 90° WNW 01:48:19 10° NNE night (unlit)
21 Dec - 12:28:06 10° NNE 12:32:18 19° ENE 12:36:25 10° ESE daylight
21 Dec - 14:09:19 10° NW 14:14:47 36° WSW 14:20:02 10° S daylight
22 Dec - 00:58:04 10° S 01:02:01 36° ESE 01:06:09 10° NE night (unlit)
22 Dec - 13:26:57 10° NNW 13:33:00 70° WSW 13:38:46 10° SSE daylight
23 Dec - 00:17:36 10° SSE 00:20:15 16° ESE 00:22:58 10° ENE night (unlit)
23 Dec - 01:59:20 10° WSW 02:02:32 20° WNW 02:05:52 10° NNW night (unlit)
23 Dec - 12:45:10 10° N 12:51:10 61° ENE 12:56:54 10° SSE daylight
23 Dec - 14:32:50 10° WSW 14:33:31 10° WSW 14:34:12 10° WSW daylight
24 Dec - 01:16:32 10° SW 01:20:40 46° WNW 01:25:02 10° N night (unlit)
24 Dec - 12:04:00 10° N 12:09:18 31° ENE 12:14:25 10° SE daylight
24 Dec - 13:47:14 10° WNW 13:51:42 22° WSW 13:56:01 10° SSW daylight
25 Dec - 00:34:35 10° SSW 00:38:52 72° ESE 00:43:23 10° NNE night (unlit)
25 Dec - 11:23:48 10° NNE 11:27:24 16° ENE 11:30:55 10° ESE daylight
25 Dec - 13:04:15 10° NW 13:09:55 42° WSW 13:15:19 10° S daylight
25 Dec - 23:53:20 10° S 23:57:06 29° ESE 00:01:01 10° NE night (unlit)
26 Dec - 01:38:21 10° W 01:39:29 11° WNW 01:40:38 10° NW night (unlit)
26 Dec - 12:22:02 10° NNW 12:28:07 83° WSW 12:33:53 10° SSE daylight
26 Dec - 23:13:20 10° SE 23:15:19 13° ESE 23:17:20 10° E night (unlit)
27 Dec - 00:54:00 10° SW 00:57:34 25° WNW 01:01:19 10° NNW night (unlit)
27 Dec - 11:40:24 10° N 11:46:16 51° ENE 11:51:52 10° SE daylight
27 Dec - 13:26:11 10° W 13:28:37 13° WSW 13:30:59 10° SW daylight
28 Dec - 00:11:28 10° SSW 00:15:43 58° WNW 00:20:14 10° N night (unlit)
28 Dec - 10:59:25 10° NNE 11:04:23 27° ENE 11:09:11 10° SE daylight
28 Dec - 12:41:58 10° NW 12:46:49 26° WSW 12:51:28 10° SSW daylight
28 Dec - 23:29:41 10° S 23:33:55 57° ESE 23:38:24 10° NNE night (unlit)
29 Dec - 10:19:42 10° NE 10:22:28 13° ENE 10:25:10 10° E daylight
29 Dec - 11:59:12 10° NW 12:05:01 50° WSW 12:10:32 10° S daylight
29 Dec - 22:48:38 10° SSE 22:52:09 24° ESE 22:55:47 10° NE night (unlit)
